K9JM Weather Reports


Display with metric or nautical units.
time (UTC)temp
F
wind
direction
speed
MPH
gust
MPH
rain 1hr
in
rain 24hr
in
rain mn
in
humidity
%
barometer
mb
20260902220016 68 135 1.0 5.0 0.00 0.00 0.00 61 1017.3
20260902214517 67 248 1.0 2.0 0.00 0.00 0.00 63 1017.4
20260902213016 67 225 1.0 4.0 0.00 0.00 0.00 63 1017.6
20260902211537 67 0.0 4.0 0.00 0.00 0.00 65 1017.6
20260902210016 65 0.0 2.0 0.00 0.00 0.00 68 1017.6
20260902204517 65 0.0 3.0 0.00 0.00 0.00 68 1017.6
20260902203016 65 0.0 2.0 0.00 0.00 0.00 68 1017.8
20260902201516 65 0.0 4.0 0.00 0.00 0.00 67 1017.9
20260902200017 65 0.0 3.0 0.00 0.00 0.00 67 1018.1
20260902194516 65 0.0 3.0 0.00 0.00 0.00 66 1018.1
20260902193016 66 0.0 2.0 0.00 0.00 0.00 65 1018.5
20260902191516 65 270 1.0 5.0 0.00 0.00 0.00 64 1018.5
20260902190016 65 0.0 2.0 0.00 0.00 0.00 64 1018.6
20260902184516 65 0.0 3.0 0.00 0.00 0.00 64 1018.7
20260902183036 65 135 1.0 3.0 0.00 0.00 0.00 63 1018.5
20260902181517 66 113 2.0 7.0 0.00 0.00 0.00 61 1018.5
20260902180016 67 113 2.0 6.0 0.00 0.00 0.00 59 1018.7
20260902174517 66 180 1.0 4.0 0.00 0.00 0.00 59 1018.6
20260902173016 65 113 1.0 6.0 0.00 0.00 0.00 60 1018.6
20260902171516 64 135 1.0 6.0 0.00 0.00 0.00 63 1018.4
20260902170016 64 113 2.0 5.0 0.00 0.00 0.00 61 1018.3
20260902164516 65 113 2.0 5.0 0.00 0.00 0.00 59 1018.1
20260902163016 63 135 1.0 5.0 0.00 0.00 0.00 60 1018.0
20260902161536 62 90 2.0 5.0 0.00 0.00 0.00 63 1017.9
20260902160016 60 113 2.0 4.0 0.00 0.00 0.00 67 1017.9
20260902154536 56 68 1.0 5.0 0.00 0.00 0.00 75 1017.7
20260902153017 55 90 1.0 3.0 0.00 0.00 0.00 77 1017.6
20260902151516 54 68 1.0 3.0 0.00 0.00 0.00 77 1017.7
20260902150016 54 68 1.0 4.0 0.00 0.00 0.00 78 1017.5
20260902144516 54 68 1.0 3.0 0.00 0.00 0.00 79 1017.3
20260902143016 53 68 1.0 4.0 0.00 0.00 0.00 80 1017.3
20260902141536 53 68 1.0 4.0 0.00 0.00 0.00 81 1017.2
20260902140036 52 0.0 4.0 0.00 0.00 0.00 83 1017.1
20260902134536 52 0.0 3.0 0.00 0.00 0.00 84 1017.0
20260902133016 52 0.0 2.0 0.00 0.00 0.00 84 1016.7
20260902131516 52 0.0 3.0 0.00 0.00 0.00 84 1016.6
20260902130056 52 0.0 3.0 0.00 0.00 0.00 84 1016.6
20260902124516 52 68 1.0 5.0 0.00 0.00 0.00 84 1016.7
20260902123016 52 90 2.0 7.0 0.00 0.00 0.00 85 1016.7
20260902121516 52 68 1.0 5.0 0.00 0.00 0.00 85 1016.8
20260902120016 52 68 1.0 3.0 0.00 0.00 0.00 86 1016.8
20260902114516 52 90 1.0 5.0 0.00 0.00 0.00 86 1016.8
20260902113016 52 68 1.0 5.0 0.00 0.00 0.00 86 1016.8
20260902111516 52 90 1.0 3.0 0.00 0.00 0.00 86 1016.8
20260902110036 52 0.0 4.0 0.00 0.00 0.00 85 1016.9
20260902104516 53 0.0 0.0 0.00 0.00 0.00 85 1016.9
20260902103016 53 0.0 0.0 0.00 0.00 0.00 85 1017.1
20260902101516 53 0.0 2.0 0.00 0.00 0.00 84 1017.1
20260902100016 53 113 1.0 3.0 0.00 0.00 0.00 84 1017.1
20260902094516 53 113 1.0 4.0 0.00 0.00 0.00 83 1017.1
20260902093016 53 113 1.0 4.0 0.00 0.00 0.00 83 1017.1
20260902091516 54 113 2.0 4.0 0.00 0.00 0.00 82 1017.2
20260902090015 54 158 1.0 9.0 0.00 0.00 0.00 82 1017.2
20260902084516 54 113 1.0 3.0 0.00 0.00 0.00 81 1017.0
20260902083016 54 0.0 3.0 0.00 0.00 0.00 81 1016.8
20260902081515 54 135 1.0 3.0 0.00 0.00 0.00 80 1016.7
20260902080016 55 113 1.0 3.0 0.00 0.00 0.00 80 1016.6
20260902074515 55 113 2.0 5.0 0.00 0.00 0.00 80 1016.4
20260902073035 55 113 2.0 5.0 0.00 0.00 0.00 79 1016.6
20260902071516 55 113 3.0 5.0 0.00 0.00 0.00 78 1016.4
20260902070016 55 113 2.0 5.0 0.00 0.00 0.00 78 1016.6
20260902064557 55 113 2.0 6.0 0.00 0.00 0.00 77 1016.7
20260902063017 55 113 2.0 6.0 0.00 0.00 0.00 77 1016.7
20260902061517 56 113 1.0 5.0 0.00 0.00 0.00 76 1016.7
20260902060017 56 158 1.0 5.0 0.00 0.00 0.00 75 1016.7
20260902054517 56 113 1.0 6.0 0.00 0.00 0.00 74 1016.4
20260902053017 57 113 1.0 4.0 0.00 0.00 0.00 72 1016.5
20260902051517 57 113 1.0 3.0 0.00 0.00 0.00 70 1016.5
20260902050017 58 0.0 4.0 0.00 0.00 0.00 70 1016.6
20260902044517 58 0.0 2.0 0.00 0.00 0.00 68 1016.6
20260902043017 59 0.0 2.0 0.00 0.00 0.00 67 1016.5
20260902041516 59 0.0 0.0 0.00 0.00 0.00 66 1016.1
20260902040016 59 0.0 0.0 0.00 0.00 0.00 65 1015.9
20260902034517 60 0.0 0.0 0.00 0.00 0.00 64 1015.7
20260902033017 61 0.0 0.0 0.00 0.00 0.00 62 1015.5
20260902031516 61 0.0 0.0 0.00 0.00 0.00 60 1015.0
20260902030016 62 0.0 0.0 0.00 0.00 0.00 58 1014.9
20260902024517 63 0.0 0.0 0.00 0.00 0.00 56 1014.5
20260902023017 63 0.0 0.0 0.00 0.00 0.00 54 1014.4
20260902021516 64 0.0 2.0 0.00 0.00 0.00 52 1014.3
20260902020016 64 0.0 1.0 0.00 0.00 0.00 52 1014.2
20260902014517 65 0.0 1.0 0.00 0.00 0.00 52 1014.3
20260902013017 65 0.0 3.0 0.00 0.00 0.00 52 1014.4
20260902011516 66 0.0 3.0 0.00 0.00 0.00 51 1014.4
20260902010037 66 0.0 3.0 0.00 0.00 0.00 52 1014.4
20260902004516 67 158 1.0 4.0 0.00 0.00 0.00 49 1014.6
20260902003017 67 113 1.0 7.0 0.00 0.00 0.00 47 1014.5
20260902001536 67 113 2.0 7.0 0.00 0.00 0.00 49 1014.6
20260902000037 68 270 1.0 5.0 0.00 0.00 0.00 48 1014.5
20260901234516 68 135 1.0 5.0 0.00 0.00 0.00 49 1014.5
20260901233016 68 203 1.0 6.0 0.00 0.00 0.00 50 1014.6
20260901231516 68 203 1.0 4.0 0.00 0.00 0.00 50 1014.8
20260901230017 68 113 1.0 6.0 0.00 0.00 0.00 50 1014.9
20260901224516 68 225 1.0 5.0 0.00 0.00 0.00 50 1015.0
20260901223017 68 113 2.0 9.0 0.00 0.00 0.00 51 1015.1
20260901221516 68 113 1.0 5.0 0.00 0.00 0.00 52 1015.2